"Time","Value","Approval","myLocation"
"2023-05-07 00:00",14.4744929577465,"Approved","OW452"
"2023-05-07 01:00",14.4744943083156,"Approved","OW452"
"2023-05-07 02:00",14.4724956588848,"Approved","OW452"
"2023-05-07 03:00",14.471497009454,"Approved","OW452"
"2023-05-07 04:00",14.4684983600232,"Approved","OW452"
"2023-05-07 05:00",14.4674997105923,"Approved","OW452"
"2023-05-07 06:00",14.4655010611615,"Approved","OW452"
"2023-05-07 07:00",14.4625024117307,"Approved","OW452"
"2023-05-07 08:00",14.4615037622998,"Approved","OW452"
"2023-05-07 09:00",14.460505112869,"Approved","OW452"
"2023-05-07 10:00",14.4585064634382,"Approved","OW452"
"2023-05-07 11:00",14.4575078140073,"Approved","OW452"
"2023-05-07 12:00",14.4545091645765,"Approved","OW452"
"2023-05-07 13:00",14.4535105151457,"Approved","OW452"
"2023-05-07 14:00",14.4515118657148,"Approved","OW452"
"2023-05-07 15:00",14.450513216284,"Approved","OW452"
"2023-05-07 16:00",14.4475145668532,"Approved","OW452"
"2023-05-07 17:00",14.4465159174223,"Approved","OW452"
"2023-05-07 18:00",14.4455172679915,"Approved","OW452"
"2023-05-07 19:00",14.4425186185607,"Approved","OW452"
"2023-05-07 20:00",14.4415199691298,"Approved","OW452"
"2023-05-07 21:00",14.438521319699,"Approved","OW452"
"2023-05-07 22:00",14.4385226702682,"Approved","OW452"
"2023-05-07 23:00",14.4355240208374,"Approved","OW452"
"2023-05-08 00:00",14.4345253714065,"Approved","OW452"
"2023-05-08 01:00",14.4335267219757,"Approved","OW452"
"2023-05-08 02:00",14.4315280725449,"Approved","OW452"
"2023-05-08 03:00",14.430529423114,"Approved","OW452"
"2023-05-08 04:00",14.4295307736832,"Approved","OW452"
"2023-05-08 05:00",14.4285321242524,"Approved","OW452"
"2023-05-08 06:00",14.4265334748215,"Approved","OW452"
"2023-05-08 07:00",14.4255348253907,"Approved","OW452"
"2023-05-08 08:00",14.4235361759599,"Approved","OW452"
"2023-05-08 09:00",14.421537526529,"Approved","OW452"
"2023-05-08 10:00",14.4205388770982,"Approved","OW452"
"2023-05-08 11:00",14.4185402276674,"Approved","OW452"
"2023-05-08 12:00",14.4165415782365,"Approved","OW452"
"2023-05-08 13:00",14.4155429288057,"Approved","OW452"
"2023-05-08 14:00",14.4155442793749,"Approved","OW452"
"2023-05-08 15:00",14.411545629944,"Approved","OW452"
"2023-05-08 16:00",14.4095469805132,"Approved","OW452"
"2023-05-08 17:00",14.4085483310824,"Approved","OW452"
"2023-05-08 18:00",14.4065496816516,"Approved","OW452"
"2023-05-08 19:00",14.4045510322207,"Approved","OW452"
"2023-05-08 20:00",14.4035523827899,"Approved","OW452"
"2023-05-08 21:00",14.4015537333591,"Approved","OW452"
"2023-05-08 22:00",14.4005550839282,"Approved","OW452"
"2023-05-08 23:00",14.3975564344974,"Approved","OW452"
"2023-05-09 00:00",14.3965577850666,"Approved","OW452"
"2023-05-09 01:00",14.3955591356357,"Approved","OW452"
"2023-05-09 02:00",14.3945604862049,"Approved","OW452"
"2023-05-09 03:00",14.3925618367741,"Approved","OW452"
"2023-05-09 04:00",14.3915631873432,"Approved","OW452"
"2023-05-09 05:00",14.3895645379124,"Approved","OW452"
"2023-05-09 06:00",14.3875658884816,"Approved","OW452"
"2023-05-09 07:00",14.3865672390507,"Approved","OW452"
"2023-05-09 08:00",14.3845685896199,"Approved","OW452"
"2023-05-09 09:00",14.3835699401891,"Approved","OW452"
"2023-05-09 10:00",14.3815712907582,"Approved","OW452"
"2023-05-09 11:00",14.3805726413274,"Approved","OW452"
"2023-05-09 12:00",14.3785739918966,"Approved","OW452"
"2023-05-09 13:00",14.3765753424658,"Approved","OW452"
"2023-05-09 14:00",14.3755766930349,"Approved","OW452"
"2023-05-09 15:00",14.3735780436041,"Approved","OW452"
"2023-05-09 16:00",14.3705793941733,"Approved","OW452"
"2023-05-09 17:00",14.3685807447424,"Approved","OW452"
"2023-05-09 18:00",14.3675820953116,"Approved","OW452"
"2023-05-09 19:00",14.3665834458808,"Approved","OW452"
"2023-05-09 20:00",14.3625847964499,"Approved","OW452"
"2023-05-09 21:00",14.3615861470191,"Approved","OW452"
"2023-05-09 22:00",14.3605874975883,"Approved","OW452"
"2023-05-09 23:00",14.3575888481574,"Approved","OW452"
"2023-05-10 00:00",14.3555901987266,"Approved","OW452"
"2023-05-10 01:00",14.3545915492958,"Approved","OW452"
"2023-05-10 02:00",14.3525928998649,"Approved","OW452"
"2023-05-10 03:00",14.3515942504341,"Approved","OW452"
"2023-05-10 04:00",14.3495956010033,"Approved","OW452"
"2023-05-10 05:00",14.3465969515724,"Approved","OW452"
"2023-05-10 06:00",14.3455983021416,"Approved","OW452"
"2023-05-10 07:00",14.3435996527108,"Approved","OW452"
"2023-05-10 08:00",14.34160100328,"Approved","OW452"
"2023-05-10 09:00",14.3406023538491,"Approved","OW452"
"2023-05-10 10:00",14.3376037044183,"Approved","OW452"
"2023-05-10 11:00",14.3366050549875,"Approved","OW452"
"2023-05-10 12:00",14.3346064055566,"Approved","OW452"
"2023-05-10 13:00",14.3326077561258,"Approved","OW452"
"2023-05-10 14:00",14.330609106695,"Approved","OW452"
"2023-05-10 15:00",14.3296104572641,"Approved","OW452"
"2023-05-10 16:00",14.3266118078333,"Approved","OW452"
"2023-05-10 17:00",14.3236131584025,"Approved","OW452"
"2023-05-10 18:00",14.3216145089716,"Approved","OW452"
"2023-05-10 19:00",14.3196158595408,"Approved","OW452"
"2023-05-10 20:00",14.31761721011,"Approved","OW452"
"2023-05-10 21:00",14.3156185606791,"Approved","OW452"
"2023-05-10 22:00",14.3146199112483,"Approved","OW452"
"2023-05-10 23:00",14.3106212618175,"Approved","OW452"
"2023-05-11 00:00",14.3096226123866,"Approved","OW452"
"2023-05-11 01:00",14.3076239629558,"Approved","OW452"
"2023-05-11 02:00",14.304625313525,"Approved","OW452"
"2023-05-11 03:00",14.3046266640942,"Approved","OW452"
"2023-05-11 04:00",14.3046280146633,"Approved","OW452"
"2023-05-11 05:00",14.3006293652325,"Approved","OW452"
"2023-05-11 06:00",14.2986307158017,"Approved","OW452"
"2023-05-11 07:00",14.2966320663708,"Approved","OW452"
"2023-05-11 08:00",14.29463341694,"Approved","OW452"
"2023-05-11 09:00",14.2926347675092,"Approved","OW452"
"2023-05-11 10:00",14.2916361180783,"Approved","OW452"
"2023-05-11 11:00",14.2896374686475,"Approved","OW452"
"2023-05-11 12:00",14.2886388192167,"Approved","OW452"
"2023-05-11 13:00",14.2856401697858,"Approved","OW452"
"2023-05-11 14:00",14.284641520355,"Approved","OW452"
"2023-05-11 15:00",14.2816428709242,"Approved","OW452"
"2023-05-11 16:00",14.2796442214933,"Approved","OW452"
"2023-05-11 17:00",14.2776455720625,"Approved","OW452"
"2023-05-11 18:00",14.2746469226317,"Approved","OW452"
"2023-05-11 19:00",14.2716482732008,"Approved","OW452"
"2023-05-11 20:00",14.27064962377,"Approved","OW452"
"2023-05-11 21:00",14.2676509743392,"Approved","OW452"
"2023-05-11 22:00",14.2656523249084,"Approved","OW452"
"2023-05-11 23:00",14.2626536754775,"Approved","OW452"
"2023-05-12 00:00",14.2616550260467,"Approved","OW452"
"2023-05-12 01:00",14.2606563766159,"Approved","OW452"
"2023-05-12 02:00",14.257657727185,"Approved","OW452"
"2023-05-12 03:00",14.2556590777542,"Approved","OW452"
"2023-05-12 04:00",14.2546604283234,"Approved","OW452"
"2023-05-12 05:00",14.2516617788925,"Approved","OW452"
"2023-05-12 06:00",14.2496631294617,"Approved","OW452"
"2023-05-12 07:00",14.2486644800309,"Approved","OW452"
"2023-05-12 08:00",14.2456658306,"Approved","OW452"
"2023-05-12 09:00",14.2446671811692,"Approved","OW452"
"2023-05-12 10:00",14.2426685317384,"Approved","OW452"
"2023-05-12 11:00",14.2406698823075,"Approved","OW452"
"2023-05-12 12:00",14.2386712328767,"Approved","OW452"
"2023-05-12 13:00",14.2376725834459,"Approved","OW452"
"2023-05-12 14:00",14.234673934015,"Approved","OW452"
"2023-05-12 15:00",14.2336752845842,"Approved","OW452"
"2023-05-12 16:00",14.2316766351534,"Approved","OW452"
"2023-05-12 17:00",14.2286779857226,"Approved","OW452"
"2023-05-12 18:00",14.2276793362917,"Approved","OW452"
"2023-05-12 19:00",14.2256806868609,"Approved","OW452"
"2023-05-12 20:00",14.2226820374301,"Approved","OW452"
"2023-05-12 21:00",14.2206833879992,"Approved","OW452"
"2023-05-12 22:00",14.2176847385684,"Approved","OW452"
"2023-05-12 23:00",14.2166860891376,"Approved","OW452"
"2023-05-13 00:00",14.2146874397067,"Approved","OW452"
"2023-05-13 01:00",14.2126887902759,"Approved","OW452"
"2023-05-13 02:00",14.2116901408451,"Approved","OW452"
"2023-05-13 03:00",14.2096914914142,"Approved","OW452"
"2023-05-13 04:00",14.2086928419834,"Approved","OW452"
"2023-05-13 05:00",14.2066941925526,"Approved","OW452"
"2023-05-13 06:00",14.2046955431217,"Approved","OW452"
"2023-05-13 07:00",14.2026968936909,"Approved","OW452"
"2023-05-13 08:00",14.2006982442601,"Approved","OW452"
"2023-05-13 09:00",14.1986995948293,"Approved","OW452"
"2023-05-13 10:00",14.1967009453984,"Approved","OW452"
"2023-05-13 11:00",14.1947022959676,"Approved","OW452"
"2023-05-13 12:00",14.1937036465368,"Approved","OW452"
"2023-05-13 13:00",14.1927049971059,"Approved","OW452"
"2023-05-13 14:00",14.1907063476751,"Approved","OW452"
"2023-05-13 15:00",14.1887076982443,"Approved","OW452"
"2023-05-13 16:00",14.1867090488134,"Approved","OW452"
"2023-05-13 17:00",14.1837103993826,"Approved","OW452"
"2023-05-13 18:00",14.1817117499518,"Approved","OW452"
"2023-05-13 19:00",14.1807131005209,"Approved","OW452"
"2023-05-13 20:00",14.1787144510901,"Approved","OW452"
"2023-05-13 21:00",14.1767158016593,"Approved","OW452"
"2023-05-13 22:00",14.1747171522284,"Approved","OW452"
"2023-05-13 23:00",14.1727185027976,"Approved","OW452"
"2023-05-14 00:00",14.1707198533668,"Approved","OW452"
"2023-05-14 01:00",14.1687212039359,"Approved","OW452"
"2023-05-14 02:00",14.1677225545051,"Approved","OW452"
"2023-05-14 03:00",14.1667239050743,"Approved","OW452"
"2023-05-14 04:00",14.1647252556435,"Approved","OW452"
"2023-05-14 05:00",14.1637266062126,"Approved","OW452"
"2023-05-14 06:00",14.1627279567818,"Approved","OW452"
"2023-05-14 07:00",14.160729307351,"Approved","OW452"
"2023-05-14 08:00",14.1587306579201,"Approved","OW452"
"2023-05-14 09:00",14.1567320084893,"Approved","OW452"
"2023-05-14 10:00",14.1547333590585,"Approved","OW452"
"2023-05-14 11:00",14.1537347096276,"Approved","OW452"
"2023-05-14 12:00",14.1517360601968,"Approved","OW452"
"2023-05-14 13:00",14.149737410766,"Approved","OW452"
"2023-05-14 14:00",14.1487387613351,"Approved","OW452"
"2023-05-14 15:00",14.1467401119043,"Approved","OW452"
"2023-05-14 16:00",14.1457414624735,"Approved","OW452"
"2023-05-14 17:00",14.1427428130426,"Approved","OW452"
"2023-05-14 18:00",14.1407441636118,"Approved","OW452"
"2023-05-14 19:00",14.138745514181,"Approved","OW452"
"2023-05-14 20:00",14.1377468647501,"Approved","OW452"
"2023-05-14 21:00",14.1357482153193,"Approved","OW452"
"2023-05-14 22:00",14.1357495658885,"Approved","OW452"
"2023-05-14 23:00",14.1337509164576,"Approved","OW452"
"2023-05-15 00:00",14.1317522670268,"Approved","OW452"
"2023-05-15 01:00",14.130753617596,"Approved","OW452"
"2023-05-15 02:00",14.1297549681652,"Approved","OW452"
"2023-05-15 03:00",14.1277563187343,"Approved","OW452"
"2023-05-15 04:00",14.1267576693035,"Approved","OW452"
"2023-05-15 05:00",14.1257590198727,"Approved","OW452"
"2023-05-15 06:00",14.1237603704418,"Approved","OW452"
"2023-05-15 07:00",14.122761721011,"Approved","OW452"
"2023-05-15 08:00",14.1207630715802,"Approved","OW452"
"2023-05-15 09:00",14.1197644221493,"Approved","OW452"
"2023-05-15 10:00",14.1177657727185,"Approved","OW452"
"2023-05-15 11:00",14.1157671232877,"Approved","OW452"
"2023-05-15 12:00",14.1147684738568,"Approved","OW452"
"2023-05-15 13:00",14.113769824426,"Approved","OW452"
"2023-05-15 14:00",14.1117711749952,"Approved","OW452"
"2023-05-15 15:00",14.1097725255643,"Approved","OW452"
"2023-05-15 16:00",14.1077738761335,"Approved","OW452"
"2023-05-15 17:00",14.1067752267027,"Approved","OW452"
"2023-05-15 18:00",14.1057765772719,"Approved","OW452"
"2023-05-15 19:00",14.104777927841,"Approved","OW452"
"2023-05-15 20:00",14.1037792784102,"Approved","OW452"
"2023-05-15 21:00",14.1007806289794,"Approved","OW452"
"2023-05-15 22:00",14.0997819795485,"Approved","OW452"
"2023-05-15 23:00",14.0987833301177,"Approved","OW452"
"2023-05-16 00:00",14.0977846806869,"Approved","OW452"
"2023-05-16 01:00",14.096786031256,"Approved","OW452"
"2023-05-16 02:00",14.0957873818252,"Approved","OW452"
"2023-05-16 03:00",14.0947887323944,"Approved","OW452"
"2023-05-16 04:00",14.0947900829635,"Approved","OW452"
"2023-05-16 05:00",14.0917914335327,"Approved","OW452"
"2023-05-16 06:00",14.0887927841019,"Approved","OW452"
"2023-05-16 07:00",14.091794134671,"Approved","OW452"
"2023-05-16 08:00",14.0917954852402,"Approved","OW452"
"2023-05-16 09:00",14.0877968358094,"Approved","OW452"
"2023-05-16 10:00",14.0857981863785,"Approved","OW452"
"2023-05-16 11:00",14.0837995369477,"Approved","OW452"
"2023-05-16 12:00",14.0828008875169,"Approved","OW452"
"2023-05-16 13:00",14.0828022380861,"Approved","OW452"
"2023-05-16 14:00",14.0808035886552,"Approved","OW452"
"2023-05-16 15:00",14.0798049392244,"Approved","OW452"
"2023-05-16 16:00",14.0788062897936,"Approved","OW452"
"2023-05-16 17:00",14.0768076403627,"Approved","OW452"
"2023-05-16 18:00",14.0748089909319,"Approved","OW452"
"2023-05-16 19:00",14.0728103415011,"Approved","OW452"
"2023-05-16 20:00",14.0718116920702,"Approved","OW452"
"2023-05-16 21:00",14.0708130426394,"Approved","OW452"
"2023-05-16 22:00",14.0688143932086,"Approved","OW452"
"2023-05-16 23:00",14.0678157437777,"Approved","OW452"
"2023-05-17 00:00",14.0658170943469,"Approved","OW452"
"2023-05-17 01:00",14.0638184449161,"Approved","OW452"
"2023-05-17 02:00",14.0648197954852,"Approved","OW452"
"2023-05-17 03:00",14.0628211460544,"Approved","OW452"
"2023-05-17 04:00",14.0618224966236,"Approved","OW452"
"2023-05-17 05:00",14.0608238471927,"Approved","OW452"
"2023-05-17 06:00",14.0558251977619,"Approved","OW452"
"2023-05-17 07:00",14.0558265483311,"Approved","OW452"
"2023-05-17 08:00",14.0548278989003,"Approved","OW452"
"2023-05-17 09:00",14.0538292494694,"Approved","OW452"
"2023-05-17 10:00",14.0528306000386,"Approved","OW452"
"2023-05-17 11:00",14.0508319506078,"Approved","OW452"
"2023-05-17 12:00",14.0488333011769,"Approved","OW452"
"2023-05-17 13:00",14.0468346517461,"Approved","OW452"
"2023-05-17 14:00",14.0468360023153,"Approved","OW452"
"2023-05-17 15:00",14.0428373528844,"Approved","OW452"
"2023-05-17 16:00",14.0428387034536,"Approved","OW452"
"2023-05-17 17:00",14.0408400540228,"Approved","OW452"
"2023-05-17 18:00",14.0398414045919,"Approved","OW452"
"2023-05-17 19:00",14.0368427551611,"Approved","OW452"
"2023-05-17 20:00",14.0348441057303,"Approved","OW452"
"2023-05-17 21:00",14.0348454562994,"Approved","OW452"
"2023-05-17 22:00",14.0328468068686,"Approved","OW452"
"2023-05-17 23:00",14.0308481574378,"Approved","OW452"
"2023-05-18 00:00",14.0298495080069,"Approved","OW452"
"2023-05-18 01:00",14.0278508585761,"Approved","OW452"
"2023-05-18 02:00",14.0268522091453,"Approved","OW452"
"2023-05-18 03:00",14.0258535597145,"Approved","OW452"
"2023-05-18 04:00",14.0248549102836,"Approved","OW452"
"2023-05-18 05:00",14.0238562608528,"Approved","OW452"
"2023-05-18 06:00",14.020857611422,"Approved","OW452"
"2023-05-18 07:00",14.0198589619911,"Approved","OW452"
"2023-05-18 08:00",14.0188603125603,"Approved","OW452"
"2023-05-18 09:00",14.0168616631295,"Approved","OW452"
"2023-05-18 10:00",14.0148630136986,"Approved","OW452"
"2023-05-18 11:00",14.0148643642678,"Approved","OW452"
"2023-05-18 12:00",14.011865714837,"Approved","OW452"
"2023-05-18 13:00",14.0108670654061,"Approved","OW452"
"2023-05-18 14:00",14.0088684159753,"Approved","OW452"
"2023-05-18 15:00",14.0088697665445,"Approved","OW452"
"2023-05-18 16:00",14.0058711171136,"Approved","OW452"
"2023-05-18 17:00",14.0048724676828,"Approved","OW452"
"2023-05-18 18:00",14.002873818252,"Approved","OW452"
"2023-05-18 19:00",14.0008751688211,"Approved","OW452"
"2023-05-18 20:00",14.0008765193903,"Approved","OW452"
"2023-05-18 21:00",13.9988778699595,"Approved","OW452"
"2023-05-18 22:00",13.9978792205287,"Approved","OW452"
"2023-05-18 23:00",13.9968805710978,"Approved","OW452"
"2023-05-19 00:00",13.993881921667,"Approved","OW452"
"2023-05-19 01:00",13.9928832722362,"Approved","OW452"
"2023-05-19 02:00",13.9918846228053,"Approved","OW452"
"2023-05-19 03:00",13.9898859733745,"Approved","OW452"
"2023-05-19 04:00",13.9898873239437,"Approved","OW452"
"2023-05-19 05:00",13.9868886745128,"Approved","OW452"
"2023-05-19 06:00",13.985890025082,"Approved","OW452"
"2023-05-19 07:00",13.9838913756512,"Approved","OW452"
"2023-05-19 08:00",13.9828927262203,"Approved","OW452"
"2023-05-19 09:00",13.9808940767895,"Approved","OW452"
"2023-05-19 10:00",13.9798954273587,"Approved","OW452"
"2023-05-19 11:00",13.9778967779278,"Approved","OW452"
"2023-05-19 12:00",13.975898128497,"Approved","OW452"
"2023-05-19 13:00",13.9748994790662,"Approved","OW452"
"2023-05-19 14:00",13.9729008296353,"Approved","OW452"
"2023-05-19 15:00",13.9709021802045,"Approved","OW452"
"2023-05-19 16:00",13.9689035307737,"Approved","OW452"
"2023-05-19 17:00",13.9669048813429,"Approved","OW452"
"2023-05-19 18:00",13.964906231912,"Approved","OW452"
"2023-05-19 19:00",13.9629075824812,"Approved","OW452"
"2023-05-19 20:00",13.9619089330504,"Approved","OW452"
"2023-05-19 21:00",13.9599102836195,"Approved","OW452"
"2023-05-19 22:00",13.9579116341887,"Approved","OW452"
"2023-05-19 23:00",13.9549129847579,"Approved","OW452"
"2023-05-20 00:00",13.953914335327,"Approved","OW452"
"2023-05-20 01:00",13.9519156858962,"Approved","OW452"
"2023-05-20 02:00",13.9509170364654,"Approved","OW452"
"2023-05-20 03:00",13.9489183870345,"Approved","OW452"
"2023-05-20 04:00",13.9489197376037,"Approved","OW452"
"2023-05-20 05:00",13.9459210881729,"Approved","OW452"
"2023-05-20 06:00",13.943922438742,"Approved","OW452"
"2023-05-20 07:00",13.9429237893112,"Approved","OW452"
"2023-05-20 08:00",13.9409251398804,"Approved","OW452"
"2023-05-20 09:00",13.9399264904495,"Approved","OW452"
"2023-05-20 10:00",13.9379278410187,"Approved","OW452"
"2023-05-20 11:00",13.9349291915879,"Approved","OW452"
"2023-05-20 12:00",13.9339305421571,"Approved","OW452"
"2023-05-20 13:00",13.9339318927262,"Approved","OW452"
"2023-05-20 14:00",13.9309332432954,"Approved","OW452"
"2023-05-20 15:00",13.9289345938646,"Approved","OW452"
"2023-05-20 16:00",13.9259359444337,"Approved","OW452"
"2023-05-20 17:00",13.9229372950029,"Approved","OW452"
"2023-05-20 18:00",13.9219386455721,"Approved","OW452"
"2023-05-20 19:00",13.9199399961412,"Approved","OW452"
"2023-05-20 20:00",13.9189413467104,"Approved","OW452"
"2023-05-20 21:00",13.9159426972796,"Approved","OW452"
"2023-05-20 22:00",13.9149440478487,"Approved","OW452"
"2023-05-20 23:00",13.9119453984179,"Approved","OW452"
"2023-05-21 00:00",13.9099467489871,"Approved","OW452"
"2023-05-21 01:00",13.9089480995562,"Approved","OW452"
"2023-05-21 02:00",13.9069494501254,"Approved","OW452"
"2023-05-21 03:00",13.9059508006946,"Approved","OW452"
"2023-05-21 04:00",13.9049521512637,"Approved","OW452"
"2023-05-21 05:00",13.9029535018329,"Approved","OW452"
"2023-05-21 06:00",13.8999548524021,"Approved","OW452"
"2023-05-21 07:00",13.8999562029713,"Approved","OW452"
"2023-05-21 08:00",13.8969575535404,"Approved","OW452"
"2023-05-21 09:00",13.8949589041096,"Approved","OW452"
"2023-05-21 10:00",13.8939602546788,"Approved","OW452"
"2023-05-21 11:00",13.8929616052479,"Approved","OW452"
"2023-05-21 12:00",13.8909629558171,"Approved","OW452"
"2023-05-21 13:00",13.8889643063863,"Approved","OW452"
"2023-05-21 14:00",13.8869656569554,"Approved","OW452"
"2023-05-21 15:00",13.8849670075246,"Approved","OW452"
"2023-05-21 16:00",13.8829683580938,"Approved","OW452"
"2023-05-21 17:00",13.8809697086629,"Approved","OW452"
"2023-05-21 18:00",13.8799710592321,"Approved","OW452"
"2023-05-21 19:00",13.8779724098013,"Approved","OW452"
"2023-05-21 20:00",13.8749737603704,"Approved","OW452"
"2023-05-21 21:00",13.8729751109396,"Approved","OW452"
"2023-05-21 22:00",13.8719764615088,"Approved","OW452"
"2023-05-21 23:00",13.8699778120779,"Approved","OW452"
"2023-05-22 00:00",13.8689791626471,"Approved","OW452"
"2023-05-22 01:00",13.8669805132163,"Approved","OW452"
"2023-05-22 02:00",13.8639818637855,"Approved","OW452"
"2023-05-22 03:00",13.8639832143546,"Approved","OW452"
"2023-05-22 04:00",13.8629845649238,"Approved","OW452"
"2023-05-22 05:00",13.860985915493,"Approved","OW452"
"2023-05-22 06:00",13.8589872660621,"Approved","OW452"
"2023-05-22 07:00",13.8569886166313,"Approved","OW452"
"2023-05-22 08:00",13.8549899672005,"Approved","OW452"
"2023-05-22 09:00",13.8529913177696,"Approved","OW452"
"2023-05-22 10:00",13.8529926683388,"Approved","OW452"
"2023-05-22 11:00",13.849994018908,"Approved","OW452"
"2023-05-22 12:00",13.8479953694771,"Approved","OW452"
"2023-05-22 13:00",13.8459967200463,"Approved","OW452"
"2023-05-22 14:00",13.8449980706155,"Approved","OW452"
"2023-05-22 15:00",13.8439994211846,"Approved","OW452"
"2023-05-22 16:00",13.8420007717538,"Approved","OW452"
"2023-05-22 17:00",13.839002122323,"Approved","OW452"
"2023-05-22 18:00",13.8390034728921,"Approved","OW452"
"2023-05-22 19:00",13.8370048234613,"Approved","OW452"
"2023-05-22 20:00",13.8350061740305,"Approved","OW452"
"2023-05-22 21:00",13.8330075245997,"Approved","OW452"
"2023-05-22 22:00",13.8310088751688,"Approved","OW452"
"2023-05-22 23:00",13.829010225738,"Approved","OW452"
"2023-05-23 00:00",13.8270115763072,"Approved","OW452"
"2023-05-23 01:00",13.8270129268763,"Approved","OW452"
"2023-05-23 02:00",13.8250142774455,"Approved","OW452"
"2023-05-23 03:00",13.8230156280147,"Approved","OW452"
"2023-05-23 04:00",13.8230169785838,"Approved","OW452"
"2023-05-23 05:00",13.821018329153,"Approved","OW452"
"2023-05-23 06:00",13.8190196797222,"Approved","OW452"
"2023-05-23 07:00",13.8180210302913,"Approved","OW452"
"2023-05-23 08:00",13.8160223808605,"Approved","OW452"
"2023-05-23 09:00",13.8140237314297,"Approved","OW452"
"2023-05-23 10:00",13.8130250819988,"Approved","OW452"
"2023-05-23 11:00",13.812026432568,"Approved","OW452"
"2023-05-23 12:00",13.8100277831372,"Approved","OW452"
"2023-05-23 13:00",13.8090291337063,"Approved","OW452"
"2023-05-23 14:00",13.8060304842755,"Approved","OW452"
"2023-05-23 15:00",13.8040318348447,"Approved","OW452"
"2023-05-23 16:00",13.8030331854139,"Approved","OW452"
"2023-05-23 17:00",13.802034535983,"Approved","OW452"
"2023-05-23 18:00",13.7990358865522,"Approved","OW452"
"2023-05-23 19:00",13.7980372371214,"Approved","OW452"
"2023-05-23 20:00",13.7970385876905,"Approved","OW452"
"2023-05-23 21:00",13.7960399382597,"Approved","OW452"
"2023-05-23 22:00",13.7930412888289,"Approved","OW452"
"2023-05-23 23:00",13.792042639398,"Approved","OW452"
"2023-05-24 00:00",13.7900439899672,"Approved","OW452"
"2023-05-24 01:00",13.7890453405364,"Approved","OW452"
"2023-05-24 02:00",13.7880466911055,"Approved","OW452"
"2023-05-24 03:00",13.7870480416747,"Approved","OW452"
"2023-05-24 04:00",13.7860493922439,"Approved","OW452"
"2023-05-24 05:00",13.784050742813,"Approved","OW452"
"2023-05-24 06:00",13.7820520933822,"Approved","OW452"
"2023-05-24 07:00",13.7810534439514,"Approved","OW452"
"2023-05-24 08:00",13.7800547945205,"Approved","OW452"
"2023-05-24 09:00",13.7790561450897,"Approved","OW452"
"2023-05-24 10:00",13.7760574956589,"Approved","OW452"
"2023-05-24 11:00",13.7760588462281,"Approved","OW452"
"2023-05-24 12:00",13.7740601967972,"Approved","OW452"
"2023-05-24 13:00",13.7740615473664,"Approved","OW452"
"2023-05-24 14:00",13.7720628979356,"Approved","OW452"
"2023-05-24 15:00",13.7710642485047,"Approved","OW452"
"2023-05-24 16:00",13.7690655990739,"Approved","OW452"
"2023-05-24 17:00",13.7680669496431,"Approved","OW452"
"2023-05-24 18:00",13.7660683002122,"Approved","OW452"
"2023-05-24 19:00",13.7640696507814,"Approved","OW452"